BAW9G EGLL-MYNN

Flight info

Callsign BAW9G
Flight time N/A
Altitude 36000
Route CPT L9 BUCGO DCT FELCA DCT OFSOX DCT BANBA DCT DINIM/M084F370 NATF ALLRY/N0495F380 DCT YQX T601 SASUG DCT ELERI/M084F400 DCT 39N067W 36N069W DCT ALOBI DCT ILIDO/N0482F400 DCT OHBEE
Aircraft B772/H-SDE2E3FGHIJ5LORVWXY/LB1D1

Departure

Time 2026-05-04 15:44
Airport London Heathrow Airport (EGLL)

Arrival

Time N/A
Airport Lynden Pindling International Airport (MYNN)
Time Latitude Longitude Altitude Speed Heading
2026-05-04 14:26 51.47181 -0.48231 90 ft 0 kts 89°
2026-05-04 14:58 51.47181 -0.48232 90 ft 0 kts 89°
2026-05-04 15:30 51.47181 -0.48264 91 ft 2 kts 89°
2026-05-04 15:30 51.47174 -0.48339 92 ft 2 kts 52°
2026-05-04 15:31 51.47146 -0.48358 91 ft 2 kts 354°
2026-05-04 15:31 51.47130 -0.48356 92 ft 2 kts 356°
2026-05-04 15:32 51.47120 -0.48355 92 ft 0 kts 358°
2026-05-04 15:34 51.47119 -0.48355 92 ft 0 kts 358°
2026-05-04 15:36 51.47195 -0.48358 93 ft 11 kts 358°
2026-05-04 15:36 51.47273 -0.48358 93 ft 13 kts 360°
2026-05-04 15:36 51.47362 -0.48359 94 ft 13 kts 360°
2026-05-04 15:37 51.47451 -0.48359 90 ft 13 kts 360°
2026-05-04 15:37 51.47540 -0.48359 90 ft 13 kts
2026-05-04 15:37 51.47580 -0.48297 95 ft 9 kts 97°
2026-05-04 15:37 51.47576 -0.48232 92 ft 9 kts 92°
2026-05-04 15:38 51.47576 -0.48129 92 ft 12 kts 87°
2026-05-04 15:38 51.47579 -0.47992 94 ft 13 kts 89°
2026-05-04 15:38 51.47580 -0.47850 94 ft 13 kts 89°
2026-05-04 15:38 51.47582 -0.47710 94 ft 13 kts 89°
2026-05-04 15:39 51.47581 -0.47569 94 ft 13 kts 91°
2026-05-04 15:39 51.47582 -0.47431 95 ft 13 kts 88°
2026-05-04 15:39 51.47583 -0.46986 94 ft 30 kts 89°
2026-05-04 15:40 51.47592 -0.46656 92 ft 30 kts 89°
2026-05-04 15:40 51.47594 -0.46324 94 ft 30 kts 89°
2026-05-04 15:40 51.47595 -0.45992 94 ft 30 kts 89°
2026-05-04 15:40 51.47597 -0.45661 91 ft 30 kts 89°
2026-05-04 15:41 51.47598 -0.45334 90 ft 30 kts 90°
2026-05-04 15:41 51.47598 -0.45000 91 ft 30 kts 89°
2026-05-04 15:41 51.47602 -0.44673 91 ft 30 kts 89°
2026-05-04 15:41 51.47600 -0.44345 90 ft 30 kts 95°
2026-05-04 15:42 51.47592 -0.44053 92 ft 16 kts 88°
2026-05-04 15:42 51.47595 -0.43879 94 ft 16 kts 90°
2026-05-04 15:42 51.47624 -0.43774 95 ft 10 kts 16°
2026-05-04 15:42 51.47691 -0.43810 94 ft 11 kts 332°
2026-05-04 15:43 51.47751 -0.43865 91 ft 11 kts 320°
2026-05-04 15:43 51.47767 -0.43975 92 ft 10 kts 271°
2026-05-04 15:43 51.47768 -0.44123 93 ft 24 kts 270°
2026-05-04 15:43 51.47771 -0.44686 96 ft 94 kts 270°
2026-05-04 15:44 51.47769 -0.46205 97 ft 178 kts 274°
2026-05-04 15:44 51.47794 -0.48291 844 ft 197 kts 272°
2026-05-04 15:44 51.47796 -0.50551 1727 ft 209 kts 274°
2026-05-04 15:44 51.47802 -0.52928 2372 ft 216 kts 267°
2026-05-04 15:45 51.47610 -0.55396 2848 ft 229 kts 260°
2026-05-04 15:45 51.47211 -0.57926 3396 ft 235 kts 253°
2026-05-04 15:45 51.46725 -0.60420 3995 ft 236 kts 252°
2026-05-04 15:45 51.46118 -0.62975 4263 ft 250 kts 250°
2026-05-04 15:46 51.45622 -0.65622 5044 ft 243 kts 256°
2026-05-04 15:46 51.45173 -0.68277 5391 ft 259 kts 252°
2026-05-04 15:46 51.44696 -0.71053 5392 ft 252 kts 265°
2026-05-04 15:46 51.44807 -0.73756 5938 ft 249 kts 276°
2026-05-04 15:47 51.44950 -0.76624 6014 ft 270 kts 274°
2026-05-04 15:47 51.45146 -0.79670 6021 ft 276 kts 275°
2026-05-04 15:47 51.45253 -0.82720 6014 ft 272 kts 270°
2026-05-04 15:47 51.45262 -0.85739 6017 ft 269 kts 269°
2026-05-04 15:48 51.45300 -0.88726 6016 ft 270 kts 277°
2026-05-04 15:48 51.45629 -0.91718 6028 ft 273 kts 281°
2026-05-04 15:48 51.46387 -0.97737 6034 ft 277 kts 279°
2026-05-04 15:49 51.46746 -1.00770 6033 ft 277 kts 279°
2026-05-04 15:49 51.47103 -1.03808 6026 ft 276 kts 279°
2026-05-04 15:49 51.47456 -1.06829 6020 ft 275 kts 279°
2026-05-04 15:49 51.47802 -1.09809 6017 ft 273 kts 279°
2026-05-04 15:50 51.48151 -1.12832 6014 ft 272 kts 279°
2026-05-04 15:50 51.48488 -1.15772 6018 ft 271 kts 279°
2026-05-04 15:50 51.48828 -1.18735 6035 ft 271 kts 279°
2026-05-04 15:50 51.49273 -1.21646 6020 ft 268 kts 295°
2026-05-04 15:51 51.50464 -1.23966 6324 ft 274 kts 318°
2026-05-04 15:51 51.51905 -1.26036 6746 ft 281 kts 315°
2026-05-04 15:51 51.53338 -1.28205 7364 ft 283 kts 315°
2026-05-04 15:51 51.54766 -1.30375 8030 ft 283 kts 315°
2026-05-04 15:52 51.56209 -1.32558 8608 ft 285 kts 315°
2026-05-04 15:52 51.57661 -1.34748 9212 ft 287 kts 314°
2026-05-04 15:52 51.59123 -1.36957 9750 ft 289 kts 315°
2026-05-04 15:52 51.60571 -1.39191 10222 ft 292 kts 310°
2026-05-04 15:53 51.61784 -1.41870 10360 ft 303 kts 297°
2026-05-04 15:53 51.62788 -1.44952 10510 ft 320 kts 294°
2026-05-04 15:53 51.63807 -1.48265 10663 ft 339 kts 294°
2026-05-04 15:53 51.64893 -1.51753 10834 ft 358 kts 295°
2026-05-04 15:54 51.66055 -1.55375 11329 ft 369 kts 296°
2026-05-04 15:54 51.67264 -1.59070 11911 ft 376 kts 296°
2026-05-04 15:54 51.68494 -1.62804 12733 ft 379 kts 297°
2026-05-04 15:54 51.69639 -1.66651 13541 ft 381 kts 290°
2026-05-04 15:55 51.70425 -1.70661 14301 ft 381 kts 282°
2026-05-04 15:55 51.70920 -1.74894 14900 ft 385 kts 275°
2026-05-04 15:55 51.71196 -1.79270 15568 ft 390 kts 274°
2026-05-04 15:55 51.71484 -1.83524 16558 ft 382 kts 275°
2026-05-04 15:56 51.71782 -1.87732 17685 ft 376 kts 275°
2026-05-04 15:56 51.72082 -1.91939 18419 ft 379 kts 275°
2026-05-04 15:56 51.72384 -1.96202 18922 ft 385 kts 275°
2026-05-04 15:56 51.72689 -2.00518 19445 ft 389 kts 275°
2026-05-04 15:57 51.72996 -2.04867 20040 ft 390 kts 275°
2026-05-04 15:57 51.73300 -2.09221 20629 ft 392 kts 275°
2026-05-04 15:57 51.73606 -2.13615 21179 ft 394 kts 275°
2026-05-04 15:57 51.73913 -2.18034 21707 ft 398 kts 275°
2026-05-04 15:58 51.74222 -2.22482 22227 ft 400 kts 275°
2026-05-04 15:58 51.74532 -2.26964 22779 ft 403 kts 274°
2026-05-04 15:58 51.74838 -2.31413 23317 ft 405 kts 274°
2026-05-04 15:58 51.75152 -2.35993 23800 ft 408 kts 274°
2026-05-04 15:59 51.75460 -2.40521 24218 ft 411 kts 274°
2026-05-04 15:59 51.75776 -2.45179 24595 ft 415 kts 274°
2026-05-04 15:59 51.76089 -2.49847 24927 ft 420 kts 274°
2026-05-04 15:59 51.76398 -2.54487 25344 ft 422 kts 274°
2026-05-04 16:00 51.76697 -2.59224 25798 ft 424 kts 274°
2026-05-04 16:00 51.76991 -2.63972 26263 ft 427 kts 274°
2026-05-04 16:00 51.77296 -2.68749 26673 ft 430 kts 274°
2026-05-04 16:00 51.77608 -2.73586 27077 ft 433 kts 274°
2026-05-04 16:01 51.77921 -2.78451 27375 ft 439 kts 275°
2026-05-04 16:01 51.78237 -2.83390 27673 ft 444 kts 275°
2026-05-04 16:01 51.78553 -2.88365 28101 ft 446 kts 274°
2026-05-04 16:01 51.78867 -2.93350 28568 ft 449 kts 275°
2026-05-04 16:02 51.79180 -2.98363 28858 ft 454 kts 275°
2026-05-04 16:02 51.79496 -3.03464 29225 ft 458 kts 275°
2026-05-04 16:02 51.80127 -3.13747 30017 ft 462 kts 275°
2026-05-04 16:03 51.80442 -3.18939 30343 ft 465 kts 275°
2026-05-04 16:03 51.80756 -3.24162 30658 ft 467 kts 275°
2026-05-04 16:03 51.81068 -3.29394 30977 ft 470 kts 275°
2026-05-04 16:03 51.81380 -3.34670 31273 ft 472 kts 275°
2026-05-04 16:04 51.81692 -3.39967 31561 ft 475 kts 275°
2026-05-04 16:04 51.82317 -3.50688 31969 ft 483 kts 275°
2026-05-04 16:04 51.82718 -3.56085 32238 ft 485 kts 280°
2026-05-04 16:05 51.83391 -3.61444 32538 ft 486 kts 282°
2026-05-04 16:05 51.84108 -3.66787 32808 ft 488 kts 282°
2026-05-04 16:05 51.85538 -3.77469 33402 ft 489 kts 282°
2026-05-04 16:06 51.86206 -3.82565 33749 ft 488 kts 282°
2026-05-04 16:06 51.88061 -3.97054 34529 ft 488 kts 282°
2026-05-04 16:07 51.88959 -4.04175 34986 ft 488 kts 282°